Location: Guadanolo
(41.9167°N, 12.9333°E)
Time: 06:22:36
(UTC+00:00)

Cosmos 2360 Rocket - Pass Details

Date: 16 September 2019
Orbit: 833 x 846 km, 71.0° (Epoch: 19 October)

Event Time Altitude Azimuth Distance (km) Brightness Sun altitude
Rises 17:35:25 0° 337° (NNW) 3,400 5.8 -4.3°
Reaches altitude 10° 17:37:52 10° 339° (NNW) 2,464 5.0 -4.7°
Maximum altitude 17:43:32 74° 65° (ENE) 876 2.2 -5.8°
Drops below altitude 10° 17:49:10 10° 151° (SSE) 2,456 4.3 -6.8°
Sets 17:51:37 0° 153° (SSE) 3,389 5.0 -7.3°
